Starlink 3709

operational
NORAD ID: 52102 Int'l Des: 2022-029 Owner: SPXS Country: US Constellation: starlink
LEOCIRCULAR

关于 Starlink 3709

正在加载描述...

实时位置

正在加载3D地球...

即将过境

高度历史

Altitude vs Time

uPlot chart will show altitude changes over time

两行轨道根数

1 52102U 22029Q 25259.05531605 -.00002235 00000-0 -12241-3 0 9990
2 52102 53.2168 143.0848 0001331 91.8927 268.2218 15.08827472194422
Epoch: Sep 16, 2025 • Age: 18 hours

当前状态

高度 542.4 km
速度 7.59 km/s
星下点 -8.91°S, 35.48°E
发射日期 Mar 19, 2022
运行时间 3.4 years
类型 internet

技术详情

分类 Payload
质量 297.00 kg
干质量 275.00 kg
总质量 297.00 kg
长度 0.20 m
直径 2.80 m
跨度 9.00 m
形状 Box + pan
制造商 SPXS
平台类型 Starlink
阶段状态 In Orbit
所有者/国家 SPXS/US

大型星座

Loading constellations...